sat.trackr.live / text

‹ back to catalog

STARLINK-34202

NORAD 64174 · 2025-113E

PAYLOAD ACTIVE UNKNOWN

§ Identity

Operator
Country
US
Launch date
2025-05-28
Launch site
AFETR
Launch vehicle
Mass (kg)
RCS (m²)

Purposes: comms

External: N2YO · Heavens-Above · Gunter

§ Orbital elements

Epoch: 2026-09-20T06:13:49.496160Z

Period
93.85 min
Inclination
53.1592°
Eccentricity
0.0001444
Mean motion
15.34400521 rev/d
Perigee alt
461.7 km
Apogee alt
463.7 km
Semi-major
6,840.8 km
B*
4.3332e-4
RAAN
266.7367°
Arg perigee
82.2558°
Mean anomaly
277.8608°
Rev number
7,486

§ Raw data

STARLINK-342021 64174U 25113E   26263.25960065  .00014292  00000+0  43332-3 0  99912 64174  53.1592 266.7367 0001444  82.2558 277.8608 15.34400521 74867

JSON: /api/v1/satellites/64174 · /tle

For live sub-satellite position, see the globe view (requires WebGL).

§ Visibility from observer

Set your observer location to see the next 7 days of passes ≥ 10°. The values pass through the URL so the page stays shareable.

No JS? Fill the form by hand. The geolocation button needs JavaScript.